Temperature
30 29 28 28 29 30 30 29 28 28 29 29 29 28 27 27 26 25 24 22 21 20 20 19 19 18 18 18 18 18 18 18 18 18 18 17 17 17 17 17 17 16 16 16
29 27 28 29 29 30 30 30 28 27 28 28 28 28 27 27 26 25 24 23 22 21 20 20 19 19 18 18 18 18 17 17 17 17 17 17 17 17 17 17 16 16 16 16
28 27 29 29 29 29 29 29 28 27 27 27 27 25 24 24 24 24 24 23 23 22 21 20 20 19 19 18 18 18 17 17 17 17 17 16 16 17 17 16 16 16 16 16
29 30 30 29 29 28 27 28 28 27 26 25 25 23 21 21 23 24 24 24 23 22 22 21 20 20 19 19 18 18 17 17 16 16 16 16 16 16 16 16 16 16 15 15
28 29 29 29 30 29 28 29 28 26 25 24 22 21 19 20 21 23 24 24 23 23 22 21 21 20 20 19 19 18 18 17 16 16 16 15 15 15 15 15 15 15 15 15
28 30 30 30 31 30 30 29 26 22 21 20 19 19 20 20 21 23 24 24 23 23 22 21 21 20 20 19 19 18 18 17 16 15 15 15 15 14 14 14 14 14 14 15
26 28 30 31 30 30 30 27 24 20 18 18 20 20 21 23 24 24 25 24 24 23 22 22 21 20 20 19 19 18 17 16 16 15 15 14 14 14 14 14 14 14 14 14
25 26 29 31 30 29 29 28 25 23 22 21 21 20 22 25 25 25 25 24 24 23 23 22 21 20 20 19 18 18 17 16 15 15 14 14 13 13 13 13 13 13 13 13
28 28 31 31 31 30 29 29 29 28 26 24 23 22 23 25 25 26 25 25 24 23 23 22 21 20 19 19 18 17 16 16 15 14 14 13 13 13 13 13 13 12 13 13
30 29 30 31 31 31 30 30 29 28 26 26 25 23 22 24 25 26 25 25 24 23 22 21 20 20 19 18 17 16 16 15 14 14 13 13 13 12 12 12 12 12 12 12
30 29 29 30 29 29 29 29 28 28 27 26 25 24 25 25 25 25 25 24 23 22 21 21 20 19 18 17 16 16 15 14 14 13 13 12 12 12 11 11 11 11 11 11
30 29 27 27 28 29 30 29 28 26 26 27 26 24 27 27 27 25 24 24 22 22 21 20 19 18 17 16 15 15 14 13 13 12 12 12 11 11 11 11 10 10 10 10
29 28 26 24 25 27 29 29 29 28 27 27 26 25 27 27 26 25 24 23 22 21 20 19 18 17 16 15 14 14 13 13 12 12 11 11 11 10 10 10 10 10 10 10
28 28 27 26 27 28 29 29 28 28 26 26 26 26 27 26 25 24 23 22 21 20 19 18 17 16 15 14 14 13 12 12 11 11 11 10 10 10 10 9 9 9 9 9
29 28 28 29 29 29 29 29 28 27 27 26 26 26 26 25 24 23 22 21 20 19 18 17 16 15 14 14 13 12 12 11 11 10 10 10 9 9 9 9 9 9 9 9
29 27 27 27 28 28 28 29 28 27 27 27 26 26 26 25 24 23 22 21 20 19 18 17 16 15 14 13 12 12 11 11 10 10 10 9 9 9 9 8 8 8 8 8
28 27 26 27 28 28 27 28 28 27 27 27 26 25 25 24 23 22 21 20 19 18 17 16 15 14 13 13 12 11 11 10 10 9 9 9 8 8 8 8 8 8 8 8
27 27 26 26 27 25 27 29 28 27 27 27 26 25 25 24 23 22 19 18 18 17 16 15 14 14 13 12 12 11 10 10 9 9 9 8 8 8 8 8 8 8 7 7
28 27 26 26 26 26 27 27 27 26 25 26 25 24 24 23 23 21 19 18 17 16 15 14 14 13 13 12 11 10 10 9 9 9 8 8 8 7 7 7 7 7 7 7
28 27 26 26 25 25 27 27 27 26 24 24 24 24 23 22 21 21 19 18 17 16 15 14 13 13 12 11 11 10 9 9 8 8 8 7 7 7 7 7 7 7 7 7
27 26 26 26 25 26 27 27 27 25 23 24 23 23 22 21 20 19 19 18 16 15 15 14 13 12 12 11 10 9 9 8 8 8 7 7 7 7 7 7 8 7 7 7
28 27 27 26 25 25 27 27 26 24 24 23 23 22 21 21 20 19 18 17 16 15 14 13 13 12 11 11 10 9 9 8 8 8 7 7 7 7 7 8 8 8 7 7
28 28 27 26 26 26 26 26 25 24 24 23 22 22 21 20 19 19 18 16 15 15 14 13 12 12 11 10 9 9 8 8 8 8 8 7 8 8 8 8 8 8 7 7
29 28 27 26 27 27 26 26 25 24 23 23 22 21 21 20 19 18 17 16 15 14 13 13 12 11 11 10 9 9 8 8 8 7 7 7 7 8 8 8 8 7 7 7
27 27 27 26 27 27 26 26 25 24 23 23 22 21 20 19 19 18 17 16 14 14 13 12 12 11 10 10 9 8 8 8 7 7 7 7 8 8 8 8 8 8 7 7
28 28 27 26 26 26 26 25 25 24 23 22 21 20 20 19 18 17 16 15 14 13 13 12 11 11 10 9 9 8 8 7 7 7 7 7 8 8 8 8 8 8 7 7
Wind_Speed
10 8 8 10 11 10 9 6 4 2 1 4 5 10 9 8 7 9 9 9 9 8 7 6 5 5 5 4 4 3 3 3 2 2 3 3 3 4 3 2 1 2 3 4
5 8 12 12 13 13 11 7 1 2 5 5 1 6 7 7 7 7 8 8 8 8 7 6 5 5 5 4 3 2 2 3 3 3 3 3 3 4 3 2 0 1 2 3
2 8 11 13 12 10 11 11 6 4 3 6 6 3 5 6 5 6 8 8 7 7 6 5 4 4 4 3 2 2 2 2 3 4 4 4 3 4 4 3 2 0 1 2
2 5 9 10 8 6 8 9 8 6 5 6 3 2 2 3 2 5 6 7 6 5 5 4 3 2 2 1 2 3 2 1 2 3 4 6 6 6 6 4 3 2 2 4
8 7 11 9 5 4 6 6 6 11 9 7 8 4 1 3 3 4 6 6 4 4 3 2 0 0 1 2 2 2 2 2 1 3 5 6 7 6 6 6 7 6 5 6
17 13 8 7 7 7 7 5 5 10 8 7 4 2 4 7 8 7 5 5 3 2 1 0 1 2 2 3 3 2 1 1 2 4 6 7 8 8 9 9 9 8 6 5
12 10 9 7 6 7 8 5 4 5 3 7 9 3 3 7 7 6 5 3 2 1 1 1 2 3 3 4 3 3 3 3 4 5 6 7 8 9 10 10 9 8 6 5
4 4 5 6 7 7 8 5 4 6 4 4 5 3 4 9 7 5 3 2 2 2 2 3 3 3 4 5 4 4 5 5 5 6 7 7 9 8 8 8 8 8 7 8
5 6 3 3 4 6 8 10 11 8 6 1 5 6 6 6 5 3 3 4 6 7 7 7 7 8 7 7 6 6 7 6 6 7 9 9 9 8 8 9 9 8 7 9
9 9 6 4 2 4 9 9 8 8 9 7 5 7 5 5 6 7 7 8 8 9 10 11 10 10 9 8 7 7 7 7 7 8 9 11 8 8 9 9 9 9 9 10
9 7 8 6 6 8 8 9 8 8 8 8 6 6 7 5 5 7 9 9 9 10 11 11 11 10 10 10 9 8 8 8 8 8 8 8 8 8 8 8 9 9 9 9
8 6 7 11 12 8 5 7 8 7 7 7 6 5 4 5 8 11 11 11 11 11 11 11 12 10 10 10 10 10 9 9 9 8 8 8 8 9 10 11 9 9 10 10
9 6 5 4 6 7 4 6 8 9 7 7 8 4 2 8 12 12 12 12 11 11 12 12 11 10 10 10 10 11 11 11 11 10 9 9 10 10 10 10 10 10 10 10
5 7 8 7 5 5 5 5 5 7 7 8 10 12 11 13 13 12 11 11 11 11 11 11 10 10 10 10 9 10 11 11 12 11 11 10 10 10 11 10 10 11 11 11
4 8 11 11 9 9 8 7 6 6 7 8 10 11 12 13 13 12 12 12 12 11 12 12 12 10 10 10 9 10 10 10 11 11 12 12 11 10 11 10 11 11 11 14
1 6 12 13 10 10 11 7 4 5 7 8 11 10 12 13 12 12 12 11 10 11 13 14 13 13 12 11 11 11 11 11 10 11 13 12 12 12 11 11 11 11 11 11
6 7 11 12 11 12 9 3 2 6 8 9 10 9 12 13 13 12 10 9 10 13 13 13 13 12 10 10 10 10 11 11 11 12 13 13 13 13 13 14 14 13 12 12
6 7 7 12 13 11 4 1 2 3 6 8 8 10 12 12 12 9 10 10 11 12 13 13 13 13 12 11 11 11 14 13 13 13 13 13 14 15 14 14 14 13 11 11
6 5 7 9 11 9 0 2 1 4 7 7 8 11 12 13 13 5 10 10 10 11 11 11 13 13 12 12 13 13 14 14 14 14 14 15 15 15 15 15 14 13 12 12
6 6 7 9 13 15 5 8 4 3 1 9 9 10 11 12 10 9 13 12 11 11 11 11 12 13 12 12 13 13 14 14 14 15 15 15 15 15 16 15 13 12 11 11
7 8 10 11 13 7 8 5 3 6 4 8 10 10 10 8 8 10 11 11 11 11 12 11 11 11 11 11 11 13 14 14 14 15 15 15 15 15 15 13 11 11 11 11
8 8 9 8 9 3 4 4 6 4 5 7 8 8 8 8 9 10 11 10 11 12 12 13 10 10 10 10 11 13 14 14 15 15 16 16 15 15 14 12 11 11 10 10
6 4 5 5 6 2 2 3 2 1 3 5 6 7 7 9 9 10 10 10 11 12 12 12 12 11 10 10 11 13 13 14 15 15 16 15 16 13 12 11 11 10 8 7
7 4 4 6 8 7 6 4 2 2 1 3 5 5 7 8 9 10 9 10 10 11 11 11 13 13 12 12 11 11 12 13 14 15 15 14 14 13 11 9 8 8 7 7
11 10 11 10 8 9 7 5 3 1 1 3 4 5 6 7 8 9 8 9 9 10 10 11 11 12 13 12 12 12 13 13 15 15 14 14 13 11 10 9 7 6 4 3
11 9 7 7 6 6 6 3 2 2 3 4 4 5 5 6 7 8 8 8 9 10 10 10 12 13 13 12 12 12 12 13 14 14 13 11 11 9 9 8 7 4 3 1
Wind_Direction
249 248 277 295 294 282 273 268 239 197 194 263 167 137 134 125 116 112 111 107 102 100 100 94 94 92 91 85 78 65 51 43 1 1 342 336 338 322 300 283 31 335 332 331
292 291 295 294 287 289 297 304 334 351 319 309 193 137 122 111 104 104 114 118 117 115 113 107 108 104 97 94 94 102 75 39 7 17 321 283 301 297 295 314 235 285 326 318
227 255 263 274 281 311 329 334 327 285 280 281 268 167 111 99 102 119 120 119 116 120 115 116 113 109 107 97 82 64 60 12 357 338 312 320 313 293 300 312 287 254 303 285
307 283 284 288 305 332 320 307 315 310 286 271 255 240 125 106 153 152 139 127 123 123 124 124 121 115 128 173 187 162 180 215 284 305 320 326 310 307 310 309 308 310 269 251
318 298 285 289 311 315 283 279 352 1 348 335 23 22 239 166 200 181 147 124 119 123 122 115 83 238 282 288 277 220 180 193 283 312 306 304 304 311 313 317 308 303 285 259
314 305 300 317 316 300 289 298 15 22 11 345 314 284 212 188 189 174 148 129 125 113 112 151 261 253 267 285 295 318 45 56 332 320 317 312 308 307 305 299 292 287 272 260
306 306 308 316 325 337 319 321 340 360 11 261 249 242 197 159 148 138 123 119 124 139 208 271 274 281 287 302 325 346 2 352 340 325 318 315 313 308 293 282 281 285 293 289
294 298 318 350 348 329 311 310 303 304 268 245 209 190 133 117 114 108 99 65 19 11 358 319 305 314 330 331 345 352 354 344 335 322 313 305 296 290 288 300 313 307 298 292
317 325 311 20 345 342 339 343 337 321 307 187 142 132 129 140 119 78 36 17 13 10 356 349 356 354 351 350 351 344 338 333 326 315 305 289 277 284 297 303 296 289 283 285
328 328 337 354 347 10 344 342 351 341 345 350 95 108 113 76 25 10 11 12 7 357 351 355 353 348 351 346 345 342 338 333 326 317 308 306 312 311 298 291 287 287 289 285
343 327 323 335 8 357 353 4 2 349 354 340 4 77 91 49 10 12 11 7 4 356 351 346 344 348 348 343 339 342 341 335 324 316 308 304 299 296 294 292 290 289 287 288
349 330 348 3 360 340 358 9 356 346 342 333 345 98 52 32 33 31 13 6 2 357 350 347 346 348 344 339 339 337 334 325 320 318 316 311 308 305 301 298 297 298 296 291
345 328 334 354 321 290 332 14 355 345 333 342 347 64 3 29 32 21 8 359 352 354 353 348 348 346 341 342 337 330 324 322 321 319 317 313 310 307 302 299 296 293 290 287
299 306 321 332 345 334 337 347 353 346 348 341 352 349 4 27 11 3 357 352 349 351 352 348 346 342 342 334 330 326 323 323 318 319 315 308 306 303 301 300 299 297 294 289
306 317 324 323 328 325 323 324 336 340 335 326 336 338 18 19 3 358 352 348 343 344 346 344 340 338 335 331 328 325 323 320 317 313 309 308 307 307 305 302 299 296 293 290
298 308 310 311 312 301 298 293 291 309 314 320 325 340 18 5 356 347 342 338 341 347 343 339 337 335 332 330 328 328 322 320 317 315 313 312 311 308 303 300 296 294 292 289
303 305 308 306 305 299 313 316 322 332 333 331 327 353 7 351 345 340 343 1 357 344 339 339 337 331 330 330 331 325 322 319 318 316 315 314 313 309 307 306 303 299 297 292
270 303 301 297 302 301 300 49 25 350 331 323 336 6 358 348 345 8 48 21 350 343 342 338 331 329 329 331 329 328 324 322 322 320 319 317 314 311 309 304 301 299 296 290
204 257 288 296 300 305 237 178 81 355 330 6 7 358 348 347 328 65 41 9 356 350 340 332 329 328 329 331 333 331 324 323 322 322 321 317 314 311 307 304 303 301 296 291
192 208 257 285 299 303 324 112 76 327 33 33 6 356 346 340 330 340 359 356 355 345 337 331 330 330 333 335 333 327 323 323 324 323 319 316 312 308 305 301 300 299 294 290
221 231 248 270 281 303 91 99 303 317 35 8 357 349 340 349 326 324 338 349 348 340 335 334 334 333 334 333 332 326 325 325 325 321 315 312 310 306 300 301 303 301 298 294
285 282 281 280 284 336 77 324 355 29 15 351 343 340 341 332 326 333 341 345 343 338 336 336 334 332 333 338 336 328 327 327 323 320 316 312 311 308 309 309 307 305 302 299
272 295 316 329 322 194 274 323 7 24 336 334 336 334 332 326 329 334 340 342 339 338 336 334 333 330 335 339 338 330 329 327 323 320 317 313 312 310 308 308 310 311 310 308
326 35 311 294 295 302 294 285 259 248 296 321 323 323 324 324 328 335 339 339 340 337 333 335 332 332 334 337 336 334 330 327 324 320 318 316 315 313 314 314 313 313 320 323
305 290 278 276 280 278 272 269 255 248 256 291 307 311 319 323 327 333 336 339 338 331 334 334 333 331 333 335 335 338 333 329 325 321 320 320 317 314 318 320 323 324 343 334
287 298 300 302 329 307 301 269 216 233 255 263 280 297 313 322 326 332 334 337 334 333 334 334 333 331 332 334 336 337 335 331 326 322 322 320 318 319 322 323 325 339 327 322
Height
1473 1477 1480 1475 1469 1466 1464 1466 1470 1468 1464 1465 1465 1471 1476 1479 1482 1487 1492 1495 1497 1499 1501 1501 1502 1502 1502 1502 1503 1503 1503 1504 1504 1504 1504 1504 1503 1503 1503 1502 1500 1500 1499 1498
1475 1481 1475 1470 1467 1463 1462 1464 1469 1471 1467 1466 1469 1473 1476 1480 1484 1489 1493 1496 1498 1500 1501 1502 1503 1503 1503 1503 1504 1504 1503 1503 1503 1503 1502 1502 1502 1501 1501 1500 1498 1497 1495 1494
1479 1477 1470 1468 1467 1466 1467 1470 1471 1474 1470 1471 1475 1483 1485 1485 1488 1492 1494 1497 1499 1500 1501 1503 1503 1504 1504 1504 1504 1504 1503 1502 1502 1501 1501 1501 1500 1499 1499 1498 1496 1494 1492 1491
1471 1468 1468 1467 1466 1468 1476 1467 1468 1473 1481 1486 1482 1501 1498 1494 1493 1492 1494 1496 1498 1500 1501 1502 1503 1504 1504 1504 1504 1503 1502 1501 1500 1499 1499 1498 1498 1497 1496 1495 1493 1491 1489 1488
1475 1470 1469 1467 1464 1465 1470 1464 1470 1478 1486 1491 1499 1508 1510 1499 1498 1493 1493 1495 1497 1499 1500 1502 1503 1503 1503 1503 1503 1502 1500 1499 1498 1497 1496 1495 1494 1493 1492 1490 1489 1488 1486 1485
1475 1468 1464 1461 1459 1459 1459 1465 1476 1487 1499 1516 1512 1517 1512 1502 1497 1493 1493 1494 1497 1498 1499 1500 1501 1501 1501 1501 1501 1500 1498 1497 1496 1494 1493 1492 1491 1489 1487 1486 1484 1483 1482 1481
1485 1472 1463 1459 1462 1461 1460 1475 1498 1515 1526 1524 1503 1511 1504 1491 1489 1490 1492 1493 1495 1496 1497 1498 1498 1499 1499 1499 1498 1497 1496 1494 1493 1491 1490 1489 1487 1485 1483 1481 1480 1478 1477 1477
1492 1487 1466 1460 1463 1467 1463 1470 1493 1507 1511 1507 1501 1509 1495 1486 1488 1489 1491 1492 1493 1494 1495 1496 1496 1496 1497 1496 1495 1494 1493 1491 1490 1488 1486 1485 1483 1481 1479 1477 1475 1474 1473 1472
1482 1479 1460 1459 1459 1461 1464 1465 1461 1472 1477 1490 1498 1497 1493 1486 1487 1487 1488 1489 1491 1492 1494 1494 1495 1495 1494 1494 1493 1492 1490 1488 1486 1484 1482 1480 1478 1476 1474 1472 1470 1469 1468 1467
1467 1475 1463 1458 1458 1460 1461 1461 1467 1475 1488 1490 1491 1497 1500 1490 1487 1485 1486 1488 1490 1492 1493 1493 1494 1493 1493 1492 1490 1489 1487 1484 1482 1480 1478 1476 1473 1471 1468 1466 1464 1463 1461 1461
1466 1476 1472 1464 1468 1471 1468 1468 1471 1472 1476 1489 1494 1501 1483 1485 1484 1484 1486 1488 1490 1491 1492 1493 1492 1492 1490 1489 1488 1486 1483 1481 1478 1475 1473 1470 1467 1465 1463 1460 1458 1457 1455 1453
1468 1473 1482 1481 1473 1467 1466 1470 1472 1485 1486 1479 1485 1498 1478 1478 1480 1483 1486 1488 1490 1491 1492 1491 1491 1490 1488 1487 1485 1482 1480 1477 1474 1471 1468 1465 1462 1459 1456 1454 1452 1450 1448 1446
1477 1481 1493 1501 1495 1478 1470 1469 1470 1473 1477 1483 1490 1493 1476 1476 1480 1484 1487 1489 1490 1490 1490 1490 1489 1488 1486 1484 1481 1479 1476 1473 1470 1466 1463 1460 1456 1453 1450 1448 1445 1443 1441 1439
1480 1481 1488 1496 1486 1474 1472 1471 1471 1476 1485 1490 1487 1485 1477 1480 1483 1485 1487 1489 1489 1490 1489 1488 1487 1485 1483 1481 1478 1475 1472 1469 1465 1462 1458 1454 1451 1448 1445 1442 1439 1436 1434 1432
1478 1481 1478 1474 1469 1468 1470 1471 1472 1478 1482 1488 1486 1483 1481 1483 1485 1486 1487 1488 1488 1488 1488 1487 1485 1483 1480 1477 1474 1471 1468 1464 1460 1456 1453 1449 1446 1442 1439 1436 1432 1429 1427 1424
1477 1484 1482 1479 1472 1470 1470 1469 1472 1475 1477 1480 1482 1482 1481 1484 1485 1486 1487 1487 1487 1487 1486 1485 1482 1480 1477 1474 1471 1467 1463 1460 1456 1452 1448 1444 1440 1436 1432 1429 1426 1423 1419 1417
1477 1481 1486 1486 1475 1473 1479 1471 1472 1474 1474 1479 1484 1483 1482 1484 1485 1485 1485 1485 1486 1486 1484 1482 1480 1477 1474 1471 1467 1463 1459 1455 1451 1447 1443 1438 1434 1430 1426 1423 1419 1415 1412 1409
1480 1484 1486 1485 1483 1497 1478 1466 1468 1474 1476 1476 1477 1480 1483 1484 1484 1485 1485 1486 1486 1484 1482 1480 1477 1474 1471 1467 1464 1460 1455 1451 1447 1442 1438 1433 1429 1424 1420 1416 1412 1408 1405 1401
1474 1482 1486 1488 1488 1483 1474 1469 1471 1477 1480 1477 1480 1483 1484 1484 1484 1484 1485 1485 1484 1483 1480 1478 1475 1471 1468 1464 1460 1456 1451 1447 1442 1438 1433 1428 1423 1418 1414 1410 1406 1402 1398 1394
1471 1477 1484 1486 1494 1494 1475 1468 1472 1476 1482 1483 1482 1484 1485 1484 1485 1483 1484 1483 1482 1480 1478 1475 1472 1468 1465 1461 1456 1452 1447 1443 1438 1433 1428 1423 1418 1413 1409 1404 1400 1396 1392 1388
1476 1478 1482 1484 1486 1476 1470 1471 1472 1483 1489 1484 1483 1484 1485 1485 1487 1486 1483 1481 1480 1478 1475 1472 1469 1465 1462 1457 1453 1448 1444 1439 1434 1429 1423 1418 1413 1409 1404 1400 1395 1391 1387 1383
1472 1476 1477 1477 1484 1485 1472 1470 1476 1482 1481 1482 1483 1484 1484 1484 1484 1483 1481 1479 1478 1475 1472 1469 1466 1462 1458 1454 1449 1445 1440 1435 1429 1424 1419 1414 1409 1404 1400 1396 1391 1387 1382 1378
1464 1466 1469 1474 1478 1474 1472 1473 1476 1478 1480 1481 1482 1482 1482 1482 1482 1481 1479 1477 1475 1473 1470 1467 1463 1459 1456 1451 1447 1441 1436 1431 1425 1420 1415 1410 1405 1400 1396 1392 1387 1383 1379 1375
1462 1463 1467 1471 1467 1468 1469 1470 1473 1475 1477 1479 1480 1480 1480 1480 1480 1478 1477 1475 1473 1471 1468 1464 1461 1457 1453 1448 1443 1438 1433 1427 1422 1416 1411 1406 1402 1397 1393 1389 1385 1381 1377 1373
1466 1465 1465 1466 1465 1465 1466 1468 1470 1472 1475 1476 1478 1478 1478 1478 1477 1476 1475 1473 1471 1468 1465 1462 1458 1454 1450 1445 1440 1435 1430 1424 1418 1413 1408 1403 1399 1395 1391 1387 1383 1379 1375 1372
1461 1460 1462 1464 1464 1465 1466 1466 1468 1470 1472 1474 1475 1476 1476 1476 1475 1474 1473 1471 1468 1466 1462 1459 1455 1451 1447 1442 1437 1432 1427 1421 1416 1411 1406 1401 1397 1393 1389 1385 1381 1377 1374 1371